owner,sensor,date,latitude,longitude,vertical_datum,wind_speed,wind_to_direction,wind_speed_of_gust,qcFlag 
TCOON,ioos:station:TCOON:057:1,2017-02-01T00:00:00Z,28.4460,-96.3961,0.0,3.4,122.0,3.5,'11111222,11111222,11111222' 
TCOON,ioos:station:TCOON:057:1,2017-02-01T00:06:00Z,28.4460,-96.3961,0.0,3.7,119.0,3.8,'11111222,11111222,11111222' 
TCOON,ioos:station:TCOON:057:1,2017-02-01T00:12:00Z,28.4460,-96.3961,0.0,3.8,122.0,4.1,'11111222,11111222,11111222' 
TCOON,ioos:station:TCOON:057:1,2017-02-01T00:18:00Z,28.4460,-96.3961,0.0,3.8,122.0,4.1,'1111122,1111122,1111122' 
TCOON,ioos:station:TCOON:057:1,2017-02-01T00:24:00Z,28.4460,-96.3961,0.0,4.2,125.0,4.6,'11111222,11111222,11111222' 
TCOON,ioos:station:TCOON:057:1,2017-02-01T00:30:00Z,28.4460,-96.3961,0.0,4.2,125.0,4.6,'11111222,11111222,11111222' 
TCOON,ioos:station:TCOON:057:1,2017-02-01T00:36:00Z,28.4460,-96.3961,0.0,4.1,124.0,4.5,'11111222,11111222,11111222' 
TCOON,ioos:station:TCOON:057:1,2017-02-01T00:42:00Z,28.4460,-96.3961,0.0,4.2,125.0,4.5,'11111222,11111222,11111222' 
TCOON,ioos:station:TCOON:057:1,2017-02-01T00:48:00Z,28.4460,-96.3961,0.0,4.3,127.0,4.6,'11111222,11111222,11111222' 
TCOON,ioos:station:TCOON:057:1,2017-02-01T00:54:00Z,28.4460,-96.3961,0.0,4.1,128.0,4.7,'11111222,11111222,11111222' 
TCOON,ioos:station:TCOON:057:1,2017-02-01T01:00:00Z,28.4460,-96.3961,0.0,4.1,130.0,4.5,'11111222,11111222,11111222' 
TCOON,ioos:station:TCOON:057:1,2017-02-01T01:06:00Z,28.4460,-96.3961,0.0,3.9,131.0,4.4,'11111222,11111222,11111222' 
TCOON,ioos:station:TCOON:057:1,2017-02-01T01:12:00Z,28.4460,-96.3961,0.0,4.0,131.0,4.4,'11111222,11111222,11111222' 
TCOON,ioos:station:TCOON:057:1,2017-02-01T01:18:00Z,28.4460,-96.3961,0.0,4.0,131.0,4.4,'1111122,1111122,1111122' 
TCOON,ioos:station:TCOON:057:1,2017-02-01T01:24:00Z,28.4460,-96.3961,0.0,4.0,139.0,4.6,'11111222,11111222,11111222' 
TCOON,ioos:station:TCOON:057:1,2017-02-01T01:30:00Z,28.4460,-96.3961,0.0,4.4,142.0,4.7,'11111222,11111222,11111222' 
TCOON,ioos:station:TCOON:057:1,2017-02-01T01:36:00Z,28.4460,-96.3961,0.0,4.4,146.0,4.9,'11111222,11111222,11111222' 
TCOON,ioos:station:TCOON:057:1,2017-02-01T01:42:00Z,28.4460,-96.3961,0.0,4.4,148.0,4.8,'11111222,11111222,11111222' 
TCOON,ioos:station:TCOON:057:1,2017-02-01T01:48:00Z,28.4460,-96.3961,0.0,4.1,147.0,4.6,'11111222,11111222,11111222' 
TCOON,ioos:station:TCOON:057:1,2017-02-01T01:54:00Z,28.4460,-96.3961,0.0,4.1,147.0,4.8,'11111222,11111222,11111222' 
TCOON,ioos:station:TCOON:057:1,2017-02-01T02:00:00Z,28.4460,-96.3961,0.0,3.9,149.0,4.3,'11111222,11111222,11111222' 
TCOON,ioos:station:TCOON:057:1,2017-02-01T02:06:00Z,28.4460,-96.3961,0.0,4.0,150.0,4.6,'11111222,11111222,11111222' 
TCOON,ioos:station:TCOON:057:1,2017-02-01T02:12:00Z,28.4460,-96.3961,0.0,4.1,150.0,4.7,'11111222,11111222,11111222' 
TCOON,ioos:station:TCOON:057:1,2017-02-01T02:18:00Z,28.4460,-96.3961,0.0,4.1,150.0,4.7,'1111122,1111122,1111122' 
TCOON,ioos:station:TCOON:057:1,2017-02-01T02:24:00Z,28.4460,-96.3961,0.0,4.6,154.0,5.2,'11111222,11111222,11111222' 
TCOON,ioos:station:TCOON:057:1,2017-02-01T02:30:00Z,28.4460,-96.3961,0.0,4.7,155.0,5.4,'11111222,11111222,11111222' 
TCOON,ioos:station:TCOON:057:1,2017-02-01T02:36:00Z,28.4460,-96.3961,0.0,4.8,157.0,5.2,'11111222,11111222,11111222' 
TCOON,ioos:station:TCOON:057:1,2017-02-01T02:42:00Z,28.4460,-96.3961,0.0,4.8,157.0,5.3,'11111222,11111222,11111222' 
TCOON,ioos:station:TCOON:057:1,2017-02-01T02:48:00Z,28.4460,-96.3961,0.0,4.8,157.0,5.5,'11111222,11111222,11111222' 
TCOON,ioos:station:TCOON:057:1,2017-02-01T02:54:00Z,28.4460,-96.3961,0.0,4.5,158.0,5.1,'11111222,11111222,11111222' 
TCOON,ioos:station:TCOON:057:1,2017-02-01T03:00:00Z,28.4460,-96.3961,0.0,4.9,158.0,5.3,'11111222,11111222,11111222' 
TCOON,ioos:station:TCOON:057:1,2017-02-01T03:06:00Z,28.4460,-96.3961,0.0,4.8,158.0,5.3,'11111222,11111222,11111222' 
TCOON,ioos:station:TCOON:057:1,2017-02-01T03:12:00Z,28.4460,-96.3961,0.0,4.9,158.0,5.5,'11111222,11111222,11111222' 
TCOON,ioos:station:TCOON:057:1,2017-02-01T03:18:00Z,28.4460,-96.3961,0.0,4.9,158.0,5.5,'1111122,1111122,1111122' 
TCOON,ioos:station:TCOON:057:1,2017-02-01T03:24:00Z,28.4460,-96.3961,0.0,5.4,161.0,6.0,'11111222,11111222,11111222' 
TCOON,ioos:station:TCOON:057:1,2017-02-01T03:30:00Z,28.4460,-96.3961,0.0,5.5,161.0,6.2,'11111222,11111222,11111222' 
TCOON,ioos:station:TCOON:057:1,2017-02-01T03:36:00Z,28.4460,-96.3961,0.0,5.6,163.0,6.3,'11111222,11111222,11111222' 
TCOON,ioos:station:TCOON:057:1,2017-02-01T03:42:00Z,28.4460,-96.3961,0.0,5.6,165.0,6.5,'11111222,11111222,11111222' 
TCOON,ioos:station:TCOON:057:1,2017-02-01T03:48:00Z,28.4460,-96.3961,0.0,5.6,166.0,6.4,'11111222,11111222,11111222' 
TCOON,ioos:station:TCOON:057:1,2017-02-01T03:54:00Z,28.4460,-96.3961,0.0,5.5,165.0,6.5,'11111222,11111222,11111222' 
TCOON,ioos:station:TCOON:057:1,2017-02-01T04:00:00Z,28.4460,-96.3961,0.0,5.3,169.0,6.1,'11111222,11111222,11111222' 
TCOON,ioos:station:TCOON:057:1,2017-02-01T04:06:00Z,28.4460,-96.3961,0.0,5.3,170.0,6.1,'11111222,11111222,11111222' 
TCOON,ioos:station:TCOON:057:1,2017-02-01T04:12:00Z,28.4460,-96.3961,0.0,5.3,171.0,6.1,'11111222,11111222,11111222' 
TCOON,ioos:station:TCOON:057:1,2017-02-01T04:18:00Z,28.4460,-96.3961,0.0,5.3,171.0,6.1,'1111122,1111122,1111122' 
TCOON,ioos:station:TCOON:057:1,2017-02-01T04:24:00Z,28.4460,-96.3961,0.0,5.4,169.0,6.1,'11111222,11111222,11111222' 
TCOON,ioos:station:TCOON:057:1,2017-02-01T04:30:00Z,28.4460,-96.3961,0.0,5.5,170.0,6.4,'11111222,11111222,11111222' 
TCOON,ioos:station:TCOON:057:1,2017-02-01T04:36:00Z,28.4460,-96.3961,0.0,5.4,169.0,6.0,'11111222,11111222,11111222' 
TCOON,ioos:station:TCOON:057:1,2017-02-01T04:42:00Z,28.4460,-96.3961,0.0,5.2,169.0,6.1,'11111222,11111222,11111222' 
TCOON,ioos:station:TCOON:057:1,2017-02-01T04:48:00Z,28.4460,-96.3961,0.0,5.5,169.0,5.9,'11111222,11111222,11111222' 
TCOON,ioos:station:TCOON:057:1,2017-02-01T04:54:00Z,28.4460,-96.3961,0.0,5.5,170.0,6.1,'11111222,11111222,11111222' 
TCOON,ioos:station:TCOON:057:1,2017-02-01T05:00:00Z,28.4460,-96.3961,0.0,5.2,172.0,6.0,'11111222,11111222,11111222' 
TCOON,ioos:station:TCOON:057:1,2017-02-01T05:06:00Z,28.4460,-96.3961,0.0,5.3,172.0,6.0,'11111222,11111222,11111222' 
TCOON,ioos:station:TCOON:057:1,2017-02-01T05:12:00Z,28.4460,-96.3961,0.0,5.3,171.0,6.1,'11111222,11111222,11111222' 
TCOON,ioos:station:TCOON:057:1,2017-02-01T05:18:00Z,28.4460,-96.3961,0.0,5.3,171.0,6.1,'1111122,1111122,1111122' 
TCOON,ioos:station:TCOON:057:1,2017-02-01T05:24:00Z,28.4460,-96.3961,0.0,5.3,171.0,5.9,'11111222,11111222,11111222' 
TCOON,ioos:station:TCOON:057:1,2017-02-01T05:30:00Z,28.4460,-96.3961,0.0,5.3,172.0,6.0,'11111222,11111222,11111222' 
TCOON,ioos:station:TCOON:057:1,2017-02-01T05:36:00Z,28.4460,-96.3961,0.0,5.2,172.0,5.9,'11111222,11111222,11111222' 
TCOON,ioos:station:TCOON:057:1,2017-02-01T05:42:00Z,28.4460,-96.3961,0.0,5.2,171.0,6.0,'11111222,11111222,11111222' 
TCOON,ioos:station:TCOON:057:1,2017-02-01T05:48:00Z,28.4460,-96.3961,0.0,5.7,172.0,6.4,'11111222,11111222,11111222' 
TCOON,ioos:station:TCOON:057:1,2017-02-01T05:54:00Z,28.4460,-96.3961,0.0,5.7,171.0,6.3,'11111222,11111222,11111222' 
TCOON,ioos:station:TCOON:057:1,2017-02-01T06:00:00Z,28.4460,-96.3961,0.0,5.2,171.0,6.0,'11111222,11111222,11111222' 
TCOON,ioos:station:TCOON:057:1,2017-02-01T06:06:00Z,28.4460,-96.3961,0.0,5.2,171.0,5.9,'11111222,11111222,11111222' 
TCOON,ioos:station:TCOON:057:1,2017-02-01T06:12:00Z,28.4460,-96.3961,0.0,5.0,171.0,5.4,'11111222,11111222,11111222' 
TCOON,ioos:station:TCOON:057:1,2017-02-01T06:18:00Z,28.4460,-96.3961,0.0,5.1,170.0,5.6,'11111222,11111222,11111222' 
TCOON,ioos:station:TCOON:057:1,2017-02-01T06:24:00Z,28.4460,-96.3961,0.0,5.1,170.0,5.6,'1111122,1111122,1111122' 
TCOON,ioos:station:TCOON:057:1,2017-02-01T06:30:00Z,28.4460,-96.3961,0.0,5.3,171.0,6.1,'11111222,11111222,11111222' 
TCOON,ioos:station:TCOON:057:1,2017-02-01T06:36:00Z,28.4460,-96.3961,0.0,5.7,171.0,6.2,'11111222,11111222,11111222' 
TCOON,ioos:station:TCOON:057:1,2017-02-01T06:42:00Z,28.4460,-96.3961,0.0,5.9,170.0,6.6,'11111222,11111222,11111222' 
TCOON,ioos:station:TCOON:057:1,2017-02-01T06:48:00Z,28.4460,-96.3961,0.0,5.9,171.0,6.6,'11111222,11111222,11111222' 
TCOON,ioos:station:TCOON:057:1,2017-02-01T06:54:00Z,28.4460,-96.3961,0.0,5.6,171.0,6.6,'11111222,11111222,11111222' 
TCOON,ioos:station:TCOON:057:1,2017-02-01T07:00:00Z,28.4460,-96.3961,0.0,5.6,171.0,6.2,'11111222,11111222,11111222' 
TCOON,ioos:station:TCOON:057:1,2017-02-01T07:06:00Z,28.4460,-96.3961,0.0,5.4,172.0,6.1,'11111222,11111222,11111222' 
TCOON,ioos:station:TCOON:057:1,2017-02-01T07:12:00Z,28.4460,-96.3961,0.0,5.5,171.0,6.5,'11111222,11111222,11111222' 
TCOON,ioos:station:TCOON:057:1,2017-02-01T07:18:00Z,28.4460,-96.3961,0.0,5.5,171.0,6.5,'1111122,1111122,1111122' 
TCOON,ioos:station:TCOON:057:1,2017-02-01T07:24:00Z,28.4460,-96.3961,0.0,5.7,172.0,6.6,'11111222,11111222,11111222' 
TCOON,ioos:station:TCOON:057:1,2017-02-01T07:30:00Z,28.4460,-96.3961,0.0,5.9,170.0,6.8,'11111222,11111222,11111222' 
TCOON,ioos:station:TCOON:057:1,2017-02-01T07:36:00Z,28.4460,-96.3961,0.0,5.8,171.0,6.7,'11111222,11111222,11111222' 
TCOON,ioos:station:TCOON:057:1,2017-02-01T07:42:00Z,28.4460,-96.3961,0.0,5.3,173.0,6.2,'11111222,11111222,11111222' 
TCOON,ioos:station:TCOON:057:1,2017-02-01T07:48:00Z,28.4460,-96.3961,0.0,5.2,174.0,5.9,'11111222,11111222,11111222' 
TCOON,ioos:station:TCOON:057:1,2017-02-01T07:54:00Z,28.4460,-96.3961,0.0,4.9,176.0,5.7,'11111222,11111222,11111222' 
TCOON,ioos:station:TCOON:057:1,2017-02-01T08:00:00Z,28.4460,-96.3961,0.0,5.1,177.0,5.7,'11111222,11111222,11111222' 
TCOON,ioos:station:TCOON:057:1,2017-02-01T08:06:00Z,28.4460,-96.3961,0.0,5.1,177.0,5.8,'11111222,11111222,11111222' 
TCOON,ioos:station:TCOON:057:1,2017-02-01T08:12:00Z,28.4460,-96.3961,0.0,5.2,177.0,5.9,'11111222,11111222,11111222' 
TCOON,ioos:station:TCOON:057:1,2017-02-01T08:18:00Z,28.4460,-96.3961,0.0,5.2,177.0,5.9,'1111122,1111122,1111122' 
TCOON,ioos:station:TCOON:057:1,2017-02-01T08:24:00Z,28.4460,-96.3961,0.0,5.4,176.0,5.9,'11111222,11111222,11111222' 
TCOON,ioos:station:TCOON:057:1,2017-02-01T08:30:00Z,28.4460,-96.3961,0.0,5.2,176.0,5.9,'11111222,11111222,11111222' 
TCOON,ioos:station:TCOON:057:1,2017-02-01T08:36:00Z,28.4460,-96.3961,0.0,4.9,176.0,5.6,'11111222,11111222,11111222' 
TCOON,ioos:station:TCOON:057:1,2017-02-01T08:42:00Z,28.4460,-96.3961,0.0,4.6,171.0,5.4,'11111222,11111222,11111222' 
TCOON,ioos:station:TCOON:057:1,2017-02-01T08:48:00Z,28.4460,-96.3961,0.0,4.6,172.0,5.3,'11111222,11111222,11111222' 
TCOON,ioos:station:TCOON:057:1,2017-02-01T08:54:00Z,28.4460,-96.3961,0.0,4.8,169.0,5.3,'11111222,11111222,11111222' 
TCOON,ioos:station:TCOON:057:1,2017-02-01T09:00:00Z,28.4460,-96.3961,0.0,4.5,173.0,5.1,'11111222,11111222,11111222' 
TCOON,ioos:station:TCOON:057:1,2017-02-01T09:06:00Z,28.4460,-96.3961,0.0,4.4,173.0,4.9,'11111222,11111222,11111222' 
TCOON,ioos:station:TCOON:057:1,2017-02-01T09:12:00Z,28.4460,-96.3961,0.0,4.3,171.0,4.7,'11111222,11111222,11111222' 
TCOON,ioos:station:TCOON:057:1,2017-02-01T09:18:00Z,28.4460,-96.3961,0.0,4.3,171.0,4.7,'1111122,1111122,1111122' 
TCOON,ioos:station:TCOON:057:1,2017-02-01T09:24:00Z,28.4460,-96.3961,0.0,4.1,172.0,4.6,'11111222,11111222,11111222' 
TCOON,ioos:station:TCOON:057:1,2017-02-01T09:30:00Z,28.4460,-96.3961,0.0,4.0,174.0,4.5,'11111222,11111222,11111222' 
TCOON,ioos:station:TCOON:057:1,2017-02-01T09:36:00Z,28.4460,-96.3961,0.0,3.9,174.0,4.3,'11111222,11111222,11111222' 
TCOON,ioos:station:TCOON:057:1,2017-02-01T09:42:00Z,28.4460,-96.3961,0.0,3.8,174.0,4.3,'11111222,11111222,11111222' 
TCOON,ioos:station:TCOON:057:1,2017-02-01T09:48:00Z,28.4460,-96.3961,0.0,3.6,174.0,4.1,'11111222,11111222,11111222' 
TCOON,ioos:station:TCOON:057:1,2017-02-01T09:54:00Z,28.4460,-96.3961,0.0,3.6,172.0,4.0,'11111222,11111222,11111222' 
TCOON,ioos:station:TCOON:057:1,2017-02-01T10:00:00Z,28.4460,-96.3961,0.0,3.6,172.0,4.0,'11111222,11111222,11111222' 
TCOON,ioos:station:TCOON:057:1,2017-02-01T10:06:00Z,28.4460,-96.3961,0.0,3.8,170.0,4.0,'11111222,11111222,11111222' 
TCOON,ioos:station:TCOON:057:1,2017-02-01T10:12:00Z,28.4460,-96.3961,0.0,3.8,169.0,4.0,'11111222,11111222,11111222' 
TCOON,ioos:station:TCOON:057:1,2017-02-01T10:18:00Z,28.4460,-96.3961,0.0,3.8,169.0,4.0,'1111122,1111122,1111122' 
TCOON,ioos:station:TCOON:057:1,2017-02-01T10:24:00Z,28.4460,-96.3961,0.0,3.7,165.0,4.1,'11111222,11111222,11111222' 
TCOON,ioos:station:TCOON:057:1,2017-02-01T10:30:00Z,28.4460,-96.3961,0.0,3.9,165.0,4.2,'11111222,11111222,11111222' 
TCOON,ioos:station:TCOON:057:1,2017-02-01T10:36:00Z,28.4460,-96.3961,0.0,4.0,167.0,4.5,'11111222,11111222,11111222' 
TCOON,ioos:station:TCOON:057:1,2017-02-01T10:42:00Z,28.4460,-96.3961,0.0,3.9,166.0,4.3,'11111222,11111222,11111222' 
TCOON,ioos:station:TCOON:057:1,2017-02-01T10:48:00Z,28.4460,-96.3961,0.0,3.6,165.0,4.2,'11111222,11111222,11111222' 
TCOON,ioos:station:TCOON:057:1,2017-02-01T10:54:00Z,28.4460,-96.3961,0.0,3.5,161.0,3.8,'11111222,11111222,11111222' 
TCOON,ioos:station:TCOON:057:1,2017-02-01T11:00:00Z,28.4460,-96.3961,0.0,3.4,163.0,3.9,'11111222,11111222,11111222' 
TCOON,ioos:station:TCOON:057:1,2017-02-01T11:06:00Z,28.4460,-96.3961,0.0,3.3,162.0,3.6,'11111222,11111222,11111222' 
TCOON,ioos:station:TCOON:057:1,2017-02-01T11:12:00Z,28.4460,-96.3961,0.0,3.1,157.0,3.5,'11111222,11111222,11111222' 
TCOON,ioos:station:TCOON:057:1,2017-02-01T11:18:00Z,28.4460,-96.3961,0.0,3.1,157.0,3.5,'1111122,1111122,1111122' 
TCOON,ioos:station:TCOON:057:1,2017-02-01T11:24:00Z,28.4460,-96.3961,0.0,3.0,157.0,3.2,'11111222,11111222,11111222' 
TCOON,ioos:station:TCOON:057:1,2017-02-01T11:30:00Z,28.4460,-96.3961,0.0,2.9,158.0,3.2,'11111222,11111222,11111222' 
TCOON,ioos:station:TCOON:057:1,2017-02-01T11:36:00Z,28.4460,-96.3961,0.0,2.7,159.0,3.0,'11111222,11111222,11111222' 
TCOON,ioos:station:TCOON:057:1,2017-02-01T11:42:00Z,28.4460,-96.3961,0.0,2.7,155.0,2.8,'11111222,11111222,11111222' 
TCOON,ioos:station:TCOON:057:1,2017-02-01T11:48:00Z,28.4460,-96.3961,0.0,2.7,159.0,2.9,'11111222,11111222,11111222' 
TCOON,ioos:station:TCOON:057:1,2017-02-01T11:54:00Z,28.4460,-96.3961,0.0,2.5,158.0,2.8,'11111222,11111222,11111222' 
TCOON,ioos:station:TCOON:057:1,2017-02-01T12:00:00Z,28.4460,-96.3961,0.0,2.7,155.0,2.9,'11111222,11111222,11111222' 
TCOON,ioos:station:TCOON:057:1,2017-02-01T12:06:00Z,28.4460,-96.3961,0.0,2.9,156.0,3.0,'11111222,11111222,11111222' 
TCOON,ioos:station:TCOON:057:1,2017-02-01T12:12:00Z,28.4460,-96.3961,0.0,2.8,155.0,3.0,'11111222,11111222,11111222' 
TCOON,ioos:station:TCOON:057:1,2017-02-01T12:18:00Z,28.4460,-96.3961,0.0,2.8,155.0,3.0,'1111122,1111122,1111122' 
TCOON,ioos:station:TCOON:057:1,2017-02-01T12:24:00Z,28.4460,-96.3961,0.0,2.9,158.0,3.5,'11111222,11111222,11111222' 
TCOON,ioos:station:TCOON:057:1,2017-02-01T12:30:00Z,28.4460,-96.3961,0.0,2.9,157.0,3.1,'11111222,11111222,11111222' 
TCOON,ioos:station:TCOON:057:1,2017-02-01T12:36:00Z,28.4460,-96.3961,0.0,3.1,156.0,3.3,'11111222,11111222,11111222' 
TCOON,ioos:station:TCOON:057:1,2017-02-01T12:42:00Z,28.4460,-96.3961,0.0,3.0,156.0,3.5,'11111222,11111222,11111222' 
TCOON,ioos:station:TCOON:057:1,2017-02-01T12:48:00Z,28.4460,-96.3961,0.0,3.1,156.0,3.4,'11111222,11111222,11111222' 
TCOON,ioos:station:TCOON:057:1,2017-02-01T12:54:00Z,28.4460,-96.3961,0.0,3.2,158.0,3.5,'11111222,11111222,11111222' 
TCOON,ioos:station:TCOON:057:1,2017-02-01T13:00:00Z,28.4460,-96.3961,0.0,3.2,157.0,3.4,'11111222,11111222,11111222' 
TCOON,ioos:station:TCOON:057:1,2017-02-01T13:06:00Z,28.4460,-96.3961,0.0,3.3,158.0,3.7,'11111222,11111222,11111222' 
TCOON,ioos:station:TCOON:057:1,2017-02-01T13:12:00Z,28.4460,-96.3961,0.0,3.2,160.0,3.6,'11111222,11111222,11111222' 
TCOON,ioos:station:TCOON:057:1,2017-02-01T13:18:00Z,28.4460,-96.3961,0.0,3.2,160.0,3.6,'1111122,1111122,1111122' 
TCOON,ioos:station:TCOON:057:1,2017-02-01T13:24:00Z,28.4460,-96.3961,0.0,3.2,161.0,3.4,'11111222,11111222,11111222' 
TCOON,ioos:station:TCOON:057:1,2017-02-01T13:30:00Z,28.4460,-96.3961,0.0,3.2,161.0,3.4,'11111222,11111222,11111222' 
TCOON,ioos:station:TCOON:057:1,2017-02-01T13:36:00Z,28.4460,-96.3961,0.0,3.3,160.0,3.6,'11111222,11111222,11111222' 
TCOON,ioos:station:TCOON:057:1,2017-02-01T13:42:00Z,28.4460,-96.3961,0.0,3.1,164.0,3.5,'11111222,11111222,11111222' 
TCOON,ioos:station:TCOON:057:1,2017-02-01T13:48:00Z,28.4460,-96.3961,0.0,3.0,163.0,3.2,'11111222,11111222,11111222' 
TCOON,ioos:station:TCOON:057:1,2017-02-01T13:54:00Z,28.4460,-96.3961,0.0,3.1,164.0,3.3,'11111222,11111222,11111222' 
TCOON,ioos:station:TCOON:057:1,2017-02-01T14:00:00Z,28.4460,-96.3961,0.0,3.2,165.0,3.3,'11111222,11111222,11111222' 
TCOON,ioos:station:TCOON:057:1,2017-02-01T14:06:00Z,28.4460,-96.3961,0.0,2.9,168.0,3.3,'11111222,11111222,11111222' 
TCOON,ioos:station:TCOON:057:1,2017-02-01T14:12:00Z,28.4460,-96.3961,0.0,2.7,166.0,3.0,'11111222,11111222,11111222' 
TCOON,ioos:station:TCOON:057:1,2017-02-01T14:18:00Z,28.4460,-96.3961,0.0,2.7,166.0,3.0,'1111122,1111122,1111122' 
TCOON,ioos:station:TCOON:057:1,2017-02-01T14:24:00Z,28.4460,-96.3961,0.0,2.5,165.0,2.7,'11111222,11111222,11111222' 
TCOON,ioos:station:TCOON:057:1,2017-02-01T14:30:00Z,28.4460,-96.3961,0.0,2.9,163.0,3.1,'11111222,11111222,11111222' 
TCOON,ioos:station:TCOON:057:1,2017-02-01T14:36:00Z,28.4460,-96.3961,0.0,3.1,164.0,3.4,'11111222,11111222,11111222' 
TCOON,ioos:station:TCOON:057:1,2017-02-01T14:42:00Z,28.4460,-96.3961,0.0,3.3,169.0,3.7,'11111222,11111222,11111222' 
TCOON,ioos:station:TCOON:057:1,2017-02-01T14:48:00Z,28.4460,-96.3961,0.0,3.7,171.0,4.0,'11111222,11111222,11111222' 
TCOON,ioos:station:TCOON:057:1,2017-02-01T14:54:00Z,28.4460,-96.3961,0.0,4.6,169.0,5.1,'11111222,11111222,11111222' 
TCOON,ioos:station:TCOON:057:1,2017-02-01T15:00:00Z,28.4460,-96.3961,0.0,4.5,171.0,5.3,'11111222,11111222,11111222' 
TCOON,ioos:station:TCOON:057:1,2017-02-01T15:06:00Z,28.4460,-96.3961,0.0,4.5,170.0,5.0,'11111222,11111222,11111222' 
TCOON,ioos:station:TCOON:057:1,2017-02-01T15:12:00Z,28.4460,-96.3961,0.0,4.7,171.0,5.1,'11111222,11111222,11111222' 
TCOON,ioos:station:TCOON:057:1,2017-02-01T15:18:00Z,28.4460,-96.3961,0.0,4.7,171.0,5.1,'1111122,1111122,1111122' 
TCOON,ioos:station:TCOON:057:1,2017-02-01T15:24:00Z,28.4460,-96.3961,0.0,5.1,169.0,5.6,'11111222,11111222,11111222' 
TCOON,ioos:station:TCOON:057:1,2017-02-01T15:30:00Z,28.4460,-96.3961,0.0,5.2,168.0,5.7,'11111222,11111222,11111222' 
TCOON,ioos:station:TCOON:057:1,2017-02-01T15:36:00Z,28.4460,-96.3961,0.0,5.6,168.0,6.0,'11111222,11111222,11111222' 
TCOON,ioos:station:TCOON:057:1,2017-02-01T15:42:00Z,28.4460,-96.3961,0.0,5.6,167.0,6.2,'11111222,11111222,11111222' 
TCOON,ioos:station:TCOON:057:1,2017-02-01T15:48:00Z,28.4460,-96.3961,0.0,5.1,166.0,5.7,'11111222,11111222,11111222' 
TCOON,ioos:station:TCOON:057:1,2017-02-01T15:54:00Z,28.4460,-96.3961,0.0,5.1,167.0,5.8,'11111222,11111222,11111222' 
TCOON,ioos:station:TCOON:057:1,2017-02-01T16:00:00Z,28.4460,-96.3961,0.0,5.9,170.0,6.3,'11111222,11111222,11111222' 
TCOON,ioos:station:TCOON:057:1,2017-02-01T16:06:00Z,28.4460,-96.3961,0.0,5.8,171.0,6.5,'11111222,11111222,11111222' 
TCOON,ioos:station:TCOON:057:1,2017-02-01T16:12:00Z,28.4460,-96.3961,0.0,5.9,170.0,6.7,'11111222,11111222,11111222' 
TCOON,ioos:station:TCOON:057:1,2017-02-01T16:18:00Z,28.4460,-96.3961,0.0,5.9,170.0,6.7,'1111122,1111122,1111122' 
TCOON,ioos:station:TCOON:057:1,2017-02-01T16:24:00Z,28.4460,-96.3961,0.0,6.1,168.0,6.8,'11111222,11111222,11111222' 
TCOON,ioos:station:TCOON:057:1,2017-02-01T16:30:00Z,28.4460,-96.3961,0.0,6.3,165.0,7.3,'11111222,11111222,11111222' 
TCOON,ioos:station:TCOON:057:1,2017-02-01T16:36:00Z,28.4460,-96.3961,0.0,6.3,166.0,7.3,'11111222,11111222,11111222' 
TCOON,ioos:station:TCOON:057:1,2017-02-01T16:42:00Z,28.4460,-96.3961,0.0,6.2,168.0,7.1,'11111222,11111222,11111222' 
TCOON,ioos:station:TCOON:057:1,2017-02-01T16:48:00Z,28.4460,-96.3961,0.0,6.2,167.0,7.1,'11111222,11111222,11111222' 
TCOON,ioos:station:TCOON:057:1,2017-02-01T16:54:00Z,28.4460,-96.3961,0.0,6.6,168.0,7.3,'11111222,11111222,11111222' 
TCOON,ioos:station:TCOON:057:1,2017-02-01T17:00:00Z,28.4460,-96.3961,0.0,6.2,170.0,7.5,'11111222,11111222,11111222' 
TCOON,ioos:station:TCOON:057:1,2017-02-01T17:06:00Z,28.4460,-96.3961,0.0,6.4,166.0,7.5,'11111222,11111222,11111222' 
TCOON,ioos:station:TCOON:057:1,2017-02-01T17:12:00Z,28.4460,-96.3961,0.0,6.6,168.0,8.3,'11111222,11111222,11111222' 
TCOON,ioos:station:TCOON:057:1,2017-02-01T17:18:00Z,28.4460,-96.3961,0.0,6.6,168.0,8.3,'1111122,1111122,1111122' 
TCOON,ioos:station:TCOON:057:1,2017-02-01T17:24:00Z,28.4460,-96.3961,0.0,6.4,168.0,7.6,'11111222,11111222,11111222' 
TCOON,ioos:station:TCOON:057:1,2017-02-01T17:30:00Z,28.4460,-96.3961,0.0,6.6,170.0,7.6,'11111222,11111222,11111222' 
TCOON,ioos:station:TCOON:057:1,2017-02-01T17:36:00Z,28.4460,-96.3961,0.0,6.8,170.0,7.9,'11111222,11111222,11111222' 
TCOON,ioos:station:TCOON:057:1,2017-02-01T17:42:00Z,28.4460,-96.3961,0.0,6.5,171.0,9.2,'11111222,11111222,11111222' 
TCOON,ioos:station:TCOON:057:1,2017-02-01T17:48:00Z,28.4460,-96.3961,0.0,6.7,169.0,8.2,'11111222,11111222,11111222' 
TCOON,ioos:station:TCOON:057:1,2017-02-01T17:54:00Z,28.4460,-96.3961,0.0,6.9,170.0,7.7,'11111222,11111222,11111222' 
TCOON,ioos:station:TCOON:057:1,2017-02-01T18:00:00Z,28.4460,-96.3961,0.0,6.8,168.0,7.5,'11111222,11111222,11111222' 
TCOON,ioos:station:TCOON:057:1,2017-02-01T18:06:00Z,28.4460,-96.3961,0.0,7.0,168.0,8.1,'11111222,11111222,11111222' 
TCOON,ioos:station:TCOON:057:1,2017-02-01T18:12:00Z,28.4460,-96.3961,0.0,7.1,166.0,8.2,'11111222,11111222,11111222' 
TCOON,ioos:station:TCOON:057:1,2017-02-01T18:18:00Z,28.4460,-96.3961,0.0,7.1,166.0,8.2,'1111122,1111122,1111122' 
TCOON,ioos:station:TCOON:057:1,2017-02-01T18:24:00Z,28.4460,-96.3961,0.0,7.8,165.0,8.7,'11111222,11111222,11111222' 
TCOON,ioos:station:TCOON:057:1,2017-02-01T18:30:00Z,28.4460,-96.3961,0.0,5.5,162.0,8.2,'11111222,11111222,11111222' 
TCOON,ioos:station:TCOON:057:1,2017-02-01T18:36:00Z,28.4460,-96.3961,0.0,5.5,160.0,6.9,'11111222,11111222,11111222' 
TCOON,ioos:station:TCOON:057:1,2017-02-01T18:42:00Z,28.4460,-96.3961,0.0,6.0,160.0,7.4,'11111222,11111222,11111222' 
TCOON,ioos:station:TCOON:057:1,2017-02-01T18:48:00Z,28.4460,-96.3961,0.0,6.0,160.0,7.4,'11111222,11111222,11111222' 
TCOON,ioos:station:TCOON:057:1,2017-02-01T18:54:00Z,28.4460,-96.3961,0.0,5.8,163.0,7.1,'11111222,11111222,11111222' 
TCOON,ioos:station:TCOON:057:1,2017-02-01T19:00:00Z,28.4460,-96.3961,0.0,5.4,159.0,7.5,'11111222,11111222,11111222' 
TCOON,ioos:station:TCOON:057:1,2017-02-01T19:06:00Z,28.4460,-96.3961,0.0,5.1,159.0,6.6,'11111222,11111222,11111222' 
TCOON,ioos:station:TCOON:057:1,2017-02-01T19:12:00Z,28.4460,-96.3961,0.0,4.9,159.0,6.5,'11111222,11111222,11111222' 
TCOON,ioos:station:TCOON:057:1,2017-02-01T19:18:00Z,28.4460,-96.3961,0.0,4.9,159.0,6.5,'1111122,1111122,1111122' 
TCOON,ioos:station:TCOON:057:1,2017-02-01T19:24:00Z,28.4460,-96.3961,0.0,5.2,157.0,6.6,'11111222,11111222,11111222' 
TCOON,ioos:station:TCOON:057:1,2017-02-01T19:30:00Z,28.4460,-96.3961,0.0,5.0,159.0,5.6,'11111222,11111222,11111222' 
TCOON,ioos:station:TCOON:057:1,2017-02-01T19:36:00Z,28.4460,-96.3961,0.0,5.1,157.0,5.6,'11111222,11111222,11111222' 
TCOON,ioos:station:TCOON:057:1,2017-02-01T19:42:00Z,28.4460,-96.3961,0.0,5.4,157.0,6.2,'11111222,11111222,11111222' 
TCOON,ioos:station:TCOON:057:1,2017-02-01T19:48:00Z,28.4460,-96.3961,0.0,5.5,156.0,6.3,'11111222,11111222,11111222' 
TCOON,ioos:station:TCOON:057:1,2017-02-01T19:54:00Z,28.4460,-96.3961,0.0,5.6,156.0,6.0,'11111222,11111222,11111222' 
TCOON,ioos:station:TCOON:057:1,2017-02-01T20:00:00Z,28.4460,-96.3961,0.0,5.5,154.0,5.9,'11111222,11111222,11111222' 
TCOON,ioos:station:TCOON:057:1,2017-02-01T20:06:00Z,28.4460,-96.3961,0.0,5.1,157.0,5.9,'11111222,11111222,11111222' 
TCOON,ioos:station:TCOON:057:1,2017-02-01T20:12:00Z,28.4460,-96.3961,0.0,5.1,158.0,5.6,'11111222,11111222,11111222' 
TCOON,ioos:station:TCOON:057:1,2017-02-01T20:18:00Z,28.4460,-96.3961,0.0,5.1,158.0,5.6,'1111122,1111122,1111122' 